Theta_e
313 314 315 315 315 315 314 315 314 313 312 311 309 308 307 306 305 304 303 301 299 298 297 295 295 295 294 294 292 291 291 289 287 286 287 285 281 281 282 282 283 283 284
311 313 313 314 314 314 314 315 314 313 312 310 309 308 307 306 305 304 303 301 299 298 297 295 295 295 294 294 294 292 292 289 287 285 284 285 282 280 280 279 283 283 283
308 310 311 312 312 312 312 313 314 313 312 310 309 307 307 307 306 305 304 301 300 299 298 296 295 295 294 294 294 293 292 290 286 285 284 282 283 283 282 282 280 279 284
305 308 309 310 312 311 312 312 313 313 312 310 309 308 307 307 306 304 304 302 300 300 299 298 297 295 295 295 294 292 289 287 285 286 283 282 281 281 281 281 279 280 280
302 305 307 309 311 311 310 310 312 312 311 310 308 308 307 306 305 304 303 302 300 299 298 298 298 296 293 295 295 292 289 287 286 285 284 282 281 281 282 280 280 280 280
299 302 305 305 308 310 309 308 310 310 310 309 307 307 305 305 301 299 302 302 300 299 297 297 298 291 292 293 294 294 292 288 286 286 284 283 283 283 281 281 280 279 278
296 297 299 302 304 307 308 308 308 309 309 307 306 306 305 305 298 298 296 302 300 299 298 297 295 295 292 293 293 292 292 292 292 288 285 285 283 283 283 282 281 280 279
294 295 295 297 301 303 306 305 307 308 307 307 305 305 304 304 297 297 295 301 300 299 298 296 295 293 293 292 290 289 289 290 289 288 287 287 285 285 284 283 282 280 280
292 294 295 296 297 297 301 303 305 306 305 305 305 303 303 302 296 296 296 300 298 296 297 296 295 292 292 292 289 288 287 286 290 289 289 288 288 287 285 282 280 278 276
292 293 294 295 296 296 299 299 301 304 302 301 299 302 298 301 295 296 297 299 295 292 290 291 288 291 291 292 290 287 286 285 286 285 286 287 287 286 286 283 281 279 276
291 290 290 291 293 295 294 291 293 297 293 295 294 297 299 299 296 295 296 297 293 289 288 287 288 291 291 292 291 289 289 286 287 285 284 283 283 282 282 281 281 281 275
288 288 288 288 290 289 289 288 289 292 293 292 292 289 289 292 292 294 295 295 294 290 288 288 288 290 291 292 290 291 290 287 285 283 282 281 280 280 279 279 279 278 278
286 286 286 285 286 287 288 287 289 291 292 290 289 289 287 287 291 293 294 293 292 292 289 289 289 291 291 291 290 289 286 285 284 282 281 280 280 279 277 276 274 274 273
285 284 284 285 284 285 286 288 289 290 289 288 288 288 287 287 289 291 292 291 289 288 288 288 289 290 290 289 287 287 285 285 283 282 281 278 277 278 278 276 275 275 271
286 286 284 283 285 286 286 287 289 289 290 289 289 289 287 287 288 291 290 289 288 287 286 287 286 286 285 284 285 285 284 283 282 281 278 278 278 278 275 271 271 273 272
286 286 286 286 286 287 286 286 289 290 290 290 291 290 287 290 290 290 290 290 289 288 286 285 285 285 284 284 284 282 282 281 282 279 279 279 278 277 276 275 270 273 273
287 286 286 286 286 286 286 286 285 287 290 290 290 290 289 289 290 290 290 289 289 289 286 285 285 284 284 284 284 282 281 281 280 280 280 279 278 277 276 275 274 273 272
286 286 286 286 286 286 286 286 286 285 285 286 289 288 289 289 289 289 289 288 286 287 286 285 285 284 285 284 283 282 281 281 280 280 280 279 278 277 275 274 274 273 267
285 286 286 286 286 286 286 286 286 286 285 285 285 287 287 289 289 289 289 286 285 285 285 285 285 285 285 285 283 283 282 280 281 279 278 277 277 277 276 275 274 273 269
286 285 286 285 285 285 285 285 285 285 285 285 285 285 286 286 285 285 286 286 285 286 286 286 285 285 285 284 283 281 280 280 279 279 278 278 277 276 275 273 275 274 274
286 285 286 285 285 285 285 285 285 285 285 285 285 285 287 285 285 285 285 285 286 286 285 285 285 285 284 282 281 280 280 280 279 280 279 278 277 275 274 274 274 273 270
285 285 285 285 285 285 285 285 285 285 285 285 284 285 287 285 285 285 285 285 286 285 286 284 283 282 282 281 281 280 280 280 280 280 278 277 276 275 274 273 272 270 269
285 285 285 285 285 285 285 285 285 285 285 285 285 285 285 285 285 285 285 285 285 284 284 283 282 281 281 281 281 281 280 280 281 281 278 277 276 275 274 273 272 270 270
285 285 285 285 285 285 285 284 285 284 284 284 284 285 285 285 285 285 285 285 285 284 284 283 283 281 281 281 281 281 281 281 281 280 279 278 276 275 274 273 272 272 271
285 285 285 285 285 284 284 284 284 284 284 284 284 285 285 285 285 285 285 285 285 284 283 283 283 282 281 280 281 281 281 281 280 280 279 278 276 274 273 273 271 271 271
285 285 285 285 285 285 285 284 284 284 284 284 284 285 285 285 285 285 285 285 284 283 283 283 283 282 282 281 280 280 280 279 278 278 277 275 274 273 273 272 270 269 267
Wind_Speed
16 17 17 17 18 17 16 16 15 15 16 15 16 18 17 17 16 16 15 13 15 13 12 12 13 9 8 7 4 3 4 4 5 2 2 3 2 2 2 3 3 3 1
14 16 17 17 16 17 17 16 14 16 16 17 16 17 18 17 17 18 17 14 16 14 13 13 14 9 10 8 7 8 6 5 5 6 3 3 2 3 1 2 2 3 1
9 13 14 15 15 16 16 15 15 15 16 17 18 18 18 17 17 17 18 16 17 17 16 15 14 13 12 9 9 8 6 4 4 5 3 3 2 4 2 2 2 1 1
7 11 13 15 16 16 15 16 16 15 15 16 17 17 17 17 16 17 17 16 15 15 15 15 14 15 15 13 11 10 7 7 4 8 3 4 3 3 2 4 2 0 1
7 10 13 13 15 15 15 15 16 16 14 15 16 16 17 16 14 17 17 16 15 14 13 14 14 15 16 16 11 11 11 9 8 8 6 4 4 5 10 4 3 2 1
7 11 9 9 12 14 13 14 15 15 16 14 16 17 17 13 20 21 18 15 15 15 15 15 14 12 15 19 17 20 18 15 11 8 7 11 10 10 5 7 6 4 4
7 7 7 9 11 13 12 13 16 16 14 15 16 17 18 17 20 23 21 15 14 15 14 13 11 11 13 13 16 21 20 21 20 14 14 13 11 14 11 11 9 3 3
8 8 7 8 10 10 11 12 14 14 15 14 15 16 15 14 21 24 23 16 14 15 15 15 16 14 15 16 13 12 11 12 11 8 11 11 7 12 12 7 7 5 4
10 10 10 10 10 9 12 11 12 12 12 12 11 14 15 13 22 24 22 16 13 14 13 13 13 12 16 23 15 13 10 8 9 11 11 15 16 21 14 9 7 7 2
11 10 10 11 11 12 12 10 8 10 10 8 10 12 14 14 21 25 24 12 12 9 7 8 11 13 23 27 17 15 14 11 10 7 8 10 16 15 18 8 9 10 4
10 8 8 9 11 11 8 5 6 8 7 9 10 10 13 14 15 25 28 13 11 9 9 8 8 18 23 23 18 13 13 13 15 10 9 7 8 7 5 4 5 6 3
8 8 9 8 7 7 9 6 5 9 10 9 9 6 4 8 13 22 27 20 19 13 12 10 11 27 26 23 16 16 21 18 9 9 9 8 9 7 5 4 5 4 2
7 8 8 7 7 8 10 9 6 8 8 8 8 8 6 5 7 20 25 23 24 12 9 14 21 27 28 22 22 22 22 11 11 10 10 9 7 6 7 6 5 5 5
7 6 6 8 7 6 5 7 8 9 7 8 8 8 7 7 8 8 10 11 16 9 14 11 15 17 17 14 16 19 11 11 13 11 9 6 7 7 6 3 3 3 3
5 5 5 4 8 7 6 8 8 7 9 9 8 9 10 9 9 15 15 11 10 12 13 10 10 9 9 9 10 12 10 10 11 10 9 9 8 7 5 3 3 3 3
7 6 6 6 6 6 6 4 5 8 12 12 12 11 6 8 16 19 19 20 22 28 10 12 11 11 12 12 12 11 10 12 10 10 10 10 10 9 8 5 2 3 4
7 7 6 6 6 7 7 7 7 3 10 13 13 13 15 12 19 21 22 24 28 23 9 10 11 12 11 12 11 10 10 9 10 10 10 11 10 9 10 8 6 4 3
5 7 6 5 5 6 6 6 6 8 8 6 10 11 14 16 21 22 24 22 15 12 8 10 10 11 12 12 11 11 11 11 10 10 10 11 11 11 9 9 9 7 4
6 5 5 5 5 6 6 6 6 7 6 6 5 8 11 20 22 24 28 12 13 11 10 11 11 11 11 11 10 10 11 10 11 11 10 10 10 10 9 9 8 8 6
7 9 7 5 5 6 6 6 6 7 7 7 8 7 9 11 11 12 12 9 10 9 8 10 10 10 10 10 10 9 10 10 10 9 10 10 9 9 9 9 8 9 8
5 6 9 6 7 7 7 7 7 7 7 8 8 9 16 11 11 11 10 7 8 8 9 9 9 10 9 10 11 11 11 10 11 11 10 9 10 10 8 8 8 8 6
5 6 7 7 6 7 7 7 7 7 8 8 7 10 20 7 8 9 9 7 6 6 7 7 6 7 8 9 9 11 12 12 12 11 10 10 9 8 8 8 7 6 7
6 7 7 6 6 7 7 6 7 7 8 7 8 10 11 9 9 9 9 7 7 8 8 9 10 9 9 10 11 11 12 13 12 12 12 11 10 10 9 9 8 7 8
6 7 7 6 6 7 7 7 7 9 8 8 8 9 10 9 10 11 10 8 8 8 9 9 9 12 11 11 10 10 9 9 10 12 15 12 12 12 9 9 9 10 8
6 6 6 6 7 7 7 7 7 8 8 8 8 9 9 8 8 9 9 9 9 9 10 9 8 12 15 16 14 14 13 15 13 13 11 12 13 14 11 9 9 9 7
5 5 5 5 6 6 6 7 7 8 8 8 8 8 8 8 8 9 9 10 9 10 11 9 10 14 15 13 15 16 16 17 16 17 12 10 10 10 9 10 11 7 7
Wind_Direction
201 205 207 207 204 202 204 201 200 197 196 197 197 194 197 198 196 196 199 196 194 194 190 191 197 183 188 186 172 159 155 129 129 149 133 138 111 126 102 108 109 97 87
198 200 204 203 198 202 205 200 190 199 194 194 195 197 197 197 198 200 200 192 192 202 197 190 198 185 184 186 185 186 175 148 129 154 137 139 137 126 185 110 105 81 27
190 196 198 202 201 201 201 200 192 198 197 196 194 194 199 201 199 202 202 198 199 195 193 195 189 185 191 178 184 182 167 157 131 139 139 134 125 152 154 107 92 27 341
191 198 201 200 200 200 199 198 197 197 199 196 195 196 197 199 200 197 201 202 201 202 193 190 191 190 192 182 180 178 157 151 137 136 113 132 119 143 124 149 114 200 181
191 202 210 207 204 200 200 197 196 197 200 196 196 195 195 196 196 197 197 199 197 196 192 186 193 193 191 186 174 175 162 159 155 148 156 143 150 160 177 163 138 149 211
198 211 211 207 206 206 200 197 197 195 199 194 196 194 194 197 193 191 193 194 194 195 193 193 187 185 183 181 180 176 173 164 163 163 166 176 184 166 168 166 157 161 191
211 209 201 203 205 209 205 195 197 199 194 197 195 197 199 198 184 185 186 193 192 196 195 191 183 190 177 181 181 172 176 179 176 172 173 183 171 177 166 169 180 176 161
214 210 202 198 210 204 205 202 199 196 197 199 197 197 198 199 180 185 183 193 193 195 194 189 187 185 179 164 165 166 173 179 175 173 184 178 165 162 175 179 157 112 84
225 216 205 197 202 194 207 202 200 194 195 200 197 194 197 196 179 183 180 194 194 193 191 188 184 176 179 155 159 161 162 166 164 159 154 154 154 164 154 140 163 149 160
222 214 198 197 202 199 205 202 195 198 194 183 191 193 193 193 182 184 185 189 188 172 156 163 168 170 173 161 161 164 170 168 154 147 152 158 151 163 163 177 163 165 138
217 193 194 192 195 199 191 174 173 177 159 176 183 192 192 192 186 186 189 183 177 165 164 159 167 161 170 167 161 169 170 149 160 150 137 143 136 156 157 138 158 155 146
188 191 197 191 186 172 171 176 173 165 178 179 182 183 174 178 185 190 190 183 173 167 172 170 171 162 166 164 156 166 151 150 151 152 147 165 162 170 152 137 117 96 60
175 191 188 180 180 172 170 171 176 182 185 182 181 186 181 179 188 188 186 182 177 176 171 172 166 171 170 168 158 159 153 155 158 168 170 178 171 140 118 103 80 85 70
193 192 176 173 169 169 164 174 183 188 185 181 185 187 182 184 182 182 186 175 167 146 149 154 163 165 165 162 150 159 165 168 172 174 173 143 124 148 152 140 129 137 104
184 170 170 166 173 169 178 179 189 196 192 186 195 187 178 188 190 178 177 174 165 151 133 139 148 154 155 160 163 166 169 168 170 165 156 156 159 158 154 161 119 140 148
183 171 177 171 167 170 168 155 202 190 189 192 185 177 189 184 170 173 171 165 153 149 148 161 165 167 173 172 171 171 174 173 174 164 163 162 167 171 160 159 125 150 155
197 184 170 168 166 167 172 175 168 173 185 179 177 175 171 172 172 171 166 163 157 152 165 170 169 172 176 178 176 174 174 179 163 170 169 170 164 167 160 176 169 164 163
165 164 163 163 166 171 176 171 172 175 179 181 181 171 175 173 172 169 160 150 161 170 168 169 172 177 179 180 179 181 173 170 174 172 173 172 172 165 167 180 183 176 137
161 162 157 157 163 171 167 167 175 175 173 161 141 169 170 172 170 165 164 167 171 178 173 175 177 179 181 176 176 178 176 177 177 173 172 171 170 169 174 179 177 170 137
166 157 158 160 158 168 171 174 174 176 168 167 169 168 161 161 169 171 177 172 174 179 178 178 175 172 170 173 171 170 162 169 171 174 173 171 173 176 174 169 175 174 186
168 162 164 163 171 175 175 180 176 176 173 171 171 164 169 173 172 176 177 173 174 169 170 172 174 176 171 169 168 169 174 175 176 180 176 172 168 173 172 174 175 184 165
167 167 172 173 167 175 178 175 175 175 172 167 159 163 167 171 170 170 173 169 167 159 157 149 149 157 162 167 172 174 177 176 177 180 173 169 168 169 167 171 175 176 177
166 167 170 168 167 169 173 173 177 176 171 169 165 168 169 170 170 172 173 161 154 149 151 157 161 169 175 178 182 184 186 190 188 177 174 171 172 174 177 183 182 183 189
170 173 175 170 168 174 175 176 177 177 172 165 172 174 178 178 180 178 171 166 166 165 170 175 178 174 178 182 184 188 190 185 178 181 173 176 179 176 176 183 186 190 183
170 172 174 173 176 179 176 176 177 177 178 173 181 185 178 176 179 179 172 169 173 172 178 177 180 183 181 184 188 188 186 180 178 175 178 177 179 177 179 186 179 175 171
168 173 172 171 177 180 181 181 182 179 180 179 180 181 179 181 180 177 177 180 184 182 177 180 185 186 188 189 188 183 181 176 175 171 171 171 170 174 177 183 170 164 149